Weather History for KADM - January, 2013

Change the Weather History Date:

Thursday, January 3, 2013

  Actual Average Record
Temperature  
Mean Temperature 34 °F -  
Max Temperature 46 °F 51 °F 82 °F (2009)
Min Temperature 23 °F 32 °F 14 °F (2001)
Degree Days  
Heating Degree Days 30    
Moisture  
Dew Point 26 °F    
Average Humidity 88    
Maximum Humidity 100    
Minimum Humidity 50    
Precipitation  
Precipitation 0.00 in - - ()
Sea Level Pressure  
Sea Level Pressure 30.39 in    
Wind  
Wind Speed 6 mph (NNW)    
Max Wind Speed 9 mph    
Max Gust Speed -    
Visibility 10 miles    
Events      
Averages and records for this station are not official NWS values.
T = Trace of Precipitation, MM = Missing Value Source: NWS Daily Summary

Daily Weather History Graph

Daily Weather History Graph

Search for Another Location

Airport or City:

Trip Planner

Search our weather history database for the weather conditions in past years. The results will help you decide how hot, cold, wet, or windy it might be!

Date:

Astronomy

Jan. 03, 2013 Rise Set
Actual Time 7:34 AM CST 5:30 PM CST
Civil Twilight 7:06 AM CST 5:58 PM CST
Nautical Twilight 6:35 AM CST 6:29 PM CST
Astronomical Twilight 6:05 AM CST 7:00 PM CST
Moon 11:48 PM CST (1/3) 11:03 AM CST (1/3)
Length of Visible Light 10h 51m
Length of Day
9h 56m
Waning Gibbous, 65% of the Moon is Illuminated
Jan 3
Waning Gibbous
Jan 4
Last Quarter
Jan 11
New
Jan 18
First Quarter
Jan 26
Full

Hourly Weather History & Observations

Time (CST) Temp. Windchill Dew Point Humidity Pressure Visibility Wind Dir Wind Speed Gust Speed Precip Events Conditions
12:15 AM 32.0 °F 24.2 °F 28.4 °F 87% 30.33 in 10.0 mi North 9.2 mph - N/A   Unknown
12:35 AM 32.0 °F 24.8 °F 28.4 °F 87% 30.33 in 10.0 mi North 8.1 mph - N/A   Unknown
12:55 AM 30.2 °F 22.6 °F 28.4 °F 93% 30.33 in 10.0 mi North 8.1 mph - N/A   Unknown
1:15 AM 30.2 °F 25.4 °F 28.4 °F 93% 30.33 in 10.0 mi North 4.6 mph - N/A   Unknown
1:35 AM 30.2 °F 24.3 °F 28.4 °F 93% 30.34 in 10.0 mi NNW 5.8 mph - N/A   Unknown
1:55 AM 28.4 °F 22.2 °F 26.6 °F 93% 30.34 in 10.0 mi North 5.8 mph - N/A   Unknown
2:15 AM 30.2 °F 25.4 °F 28.4 °F 93% 30.35 in 10.0 mi North 4.6 mph - N/A   Unknown
2:35 AM 28.4 °F 22.2 °F 24.8 °F 86% 30.35 in 10.0 mi NNW 5.8 mph - N/A   Unknown
2:55 AM 26.6 °F 18.2 °F 24.8 °F 93% 30.36 in 10.0 mi NNW 8.1 mph - N/A   Unknown
3:15 AM 28.4 °F 20.4 °F 26.6 °F 93% 30.36 in 10.0 mi NNW 8.1 mph - N/A   Unknown
3:35 AM 28.4 °F 20.4 °F 26.6 °F 93% 30.36 in 10.0 mi NNW 8.1 mph - N/A   Unknown
3:55 AM 26.6 °F 20.0 °F 26.6 °F 100% 30.37 in 10.0 mi NNW 5.8 mph - N/A   Unknown
4:15 AM 26.6 °F 21.2 °F 23.0 °F 86% 30.37 in 10.0 mi NNW 4.6 mph - N/A   Unknown
4:35 AM 26.6 °F 21.2 °F 24.8 °F 93% 30.38 in 10.0 mi North 4.6 mph - N/A   Unknown
4:55 AM 26.6 °F 19.1 °F 24.8 °F 93% 30.38 in 10.0 mi North 6.9 mph - N/A   Unknown
5:15 AM 24.8 °F 19.1 °F 23.0 °F 93% 30.38 in 10.0 mi North 4.6 mph - N/A   Unknown
5:35 AM 23.0 °F 18.4 °F 23.0 °F 100% 30.39 in 7.0 mi NNW 3.5 mph - N/A   Unknown
6:55 AM 23.0 °F - 23.0 °F 100% 30.43 in 10.0 mi Calm Calm - N/A   Clear
7:55 AM 24.8 °F - 24.8 °F 100% 30.44 in 10.0 mi Calm Calm - N/A   Clear
9:53 AM 35.6 °F 28.6 °F 30.2 °F 81% 30.48 in 10.0 mi SW 9.2 mph - N/A   Clear
11:55 AM 44.6 °F 41.4 °F 32.0 °F 61% 30.45 in 10.0 mi NNW 5.8 mph - N/A   Clear
12:55 PM 46.4 °F 42.4 °F 28.4 °F 50% 30.41 in 10.0 mi NW 8.1 mph - N/A   Clear
10:35 PM 32.0 °F - 26.6 °F 80% 30.46 in 10.0 mi Calm Calm - N/A   Unknown
10:55 PM 30.2 °F - 23.0 °F 75% 30.46 in 10.0 mi Calm Calm - N/A   Unknown
11:15 PM 30.2 °F - 24.8 °F 80% 30.46 in 10.0 mi Calm Calm - N/A   Unknown
11:35 PM 28.4 °F - 24.8 °F 86% 30.48 in 10.0 mi Calm Calm - N/A   Unknown
11:55 PM 28.4 °F - 24.8 °F 86% 30.48 in 10.0 mi Calm Calm - N/A   Unknown